Location: Moscow
(55.7500°N, 37.5830°E)
Time: 18:28:31
(UTC+03:00)

ISS - Pass Details

Date: 19 March 2026
Orbit: 416 x 425 km, 51.6° (Epoch: 19 April)

Event Time Altitude Azimuth Distance (km) Brightness Sun altitude
Rises 20:17:03 0° 260° (W) 2,388 1.2 -14.0°
Reaches altitude 10° 20:19:13 10° 254° (WSW) 1,520 -0.1 -14.3°
Maximum altitude 20:22:27 41° 182° (S) 629 -3.1 -14.7°
Enters shadow 20:23:35 30° 136° (SE) 790 -2.9 -14.9°
